Location: ???????
(55.4362°N, 38.1183°E)
Time: 14:42:00
(UTC+00:00)

Cosmos 372 Rocket - Pass Details

Date: 23 October 2021
Orbit: 738 x 768 km, 74.1° (Epoch: 04 December)

Event Time Altitude Azimuth Distance (km) Brightness Sun altitude
Rises 16:53:51 0° 281° (W) 3,178 8.6 -23.9°
Reaches altitude 10° 16:57:34 10° 309° (NW) 2,257 7.3 -24.4°
Maximum altitude 16:59:57 13° 337° (NNW) 2,048 6.7 -24.8°
Drops below altitude 10° 17:02:20 10° 5° (N) 2,261 6.6 -25.1°
Enters shadow 17:04:43 - 25° (NNE) 2,800 6.8 -25.4°
